Weather History for Tomahawk, WI

Change the Weather History Date:

Wednesday, July 17, 2013

  Actual Average (KRHI) Record (KRHI)
Temperature  
Mean Temperature 76 °F 67 °F  
Max Temperature 88 °F 79 °F 95 °F (2005)
Min Temperature 64 °F 55 °F 42 °F (1911)
Degree Days  
Heating Degree Days 0 2  
Month to date heating degree days 34  
Since 1 June heating degree days 168  
Since 1 July heating degree days 34  
Cooling Degree Days 11 4  
Month to date cooling degree days 58  
Year to date cooling degree days 123  
Since 1 June cooling degree days 111  
Growing Degree Days 26 (Base 50)    
Moisture  
Dew Point 67 °F    
Average Humidity 72    
Maximum Humidity 96    
Minimum Humidity 46    
Precipitation  
Precipitation 0.00 in 0.14 in 1.25 in (1991)
Month to date precipitation 2.29  
Year to date precipitation 15.86  
Snow  
Snow 0.00 in - 0.00 in ()
Month to date snowfall  
Since 1 June snowfall  
Since 1 July snowfall  
Snow Depth -    
Sea Level Pressure  
Sea Level Pressure 30.24 in    
Wind  
Wind Speed 2 mph (WSW)    
Max Wind Speed 9 mph    
Max Gust Speed -    
Visibility 9 miles    
Events      
T = Trace of Precipitation, MM = Missing Value Source: NWS Daily Summary

Daily Weather History Graph

Daily Weather History Graph

Search for Another Location

Airport:

Trip Planner

Search our weather history database for the weather conditions in past years. The results will help you decide how hot, cold, wet, or windy it might be!

Date:

Astronomy

Jul. 17, 2013 Rise Set
Actual Time 5:27 AM CDT 8:42 PM CDT
Civil Twilight 4:51 AM CDT 9:18 PM CDT
Nautical Twilight 4:04 AM CDT 10:05 PM CDT
Astronomical Twilight 3:05 AM CDT 11:03 PM CDT
Moon 3:28 PM CDT (7/17) 12:40 AM CDT (7/17)
Length of Visible Light 16h 27m
Length of Day
15h 15m
Waxing Gibbous, 67% of the Moon is Illuminated
Jul 17
Waxing Gibbous
Jul 22
Full
Jul 29
Last Quarter
Aug 6
New
Aug 14
First Quarter

Hourly Weather History & Observations

Time (CDT) Temp. Heat Index Dew Point Humidity Pressure Visibility Wind Dir Wind Speed Gust Speed Precip Events Conditions
12:15 AM 72.1 °F - 68.7 °F 89% 30.26 in 10.0 mi Calm Calm - N/A   Clear
12:35 AM 72.3 °F - 68.7 °F 88% 30.26 in 10.0 mi Calm Calm - N/A   Clear
12:55 AM 71.6 °F - 68.4 °F 89% 30.26 in 10.0 mi Calm Calm - N/A   Clear
1:15 AM 71.4 °F - 68.9 °F 92% 30.26 in 10.0 mi Calm Calm - N/A   Clear
1:35 AM 71.6 °F - 68.9 °F 91% 30.26 in 10.0 mi Calm Calm - N/A   Clear
1:55 AM 71.8 °F - 69.1 °F 91% 30.26 in 10.0 mi Calm Calm - N/A   Clear
2:15 AM 72.3 °F - 69.3 °F 90% 30.26 in 10.0 mi Calm Calm - N/A   Clear
2:35 AM 70.9 °F - 68.4 °F 92% 30.26 in 7.0 mi Calm Calm - N/A   Clear
2:55 AM 70.2 °F - 68.0 °F 93% 30.26 in 7.0 mi Calm Calm - N/A   Clear
3:15 AM 69.1 °F - 67.1 °F 93% 30.26 in 5.0 mi Calm Calm - N/A   Clear
3:35 AM 68.4 °F - 66.7 °F 95% 30.26 in 4.0 mi Calm Calm - N/A   Clear
3:55 AM 68.5 °F - 66.9 °F 95% 30.27 in 2.5 mi Calm Calm - N/A   Scattered Clouds
4:15 AM 67.3 °F - 65.8 °F 95% 30.27 in 2.5 mi Calm Calm - N/A   Scattered Clouds
4:35 AM 67.5 °F - 66.2 °F 96% 30.27 in 1.8 mi Calm Calm - N/A   Mist
4:55 AM 65.3 °F - 63.7 °F 94% 30.27 in 1.0 mi Calm Calm - N/A   Mist
5:15 AM 66.0 °F - 64.8 °F 96% 30.27 in 1.8 mi Calm Calm - N/A   Mist
5:35 AM 65.5 °F - 64.0 °F 95% 30.28 in 2.0 mi Calm Calm - N/A   Scattered Clouds
5:55 AM 64.9 °F - 63.7 °F 96% 30.28 in 3.0 mi Calm Calm - N/A   Scattered Clouds
6:15 AM 66.7 °F - 65.5 °F 96% 30.28 in 3.0 mi Calm Calm - N/A   Clear
6:35 AM 70.3 °F - 69.1 °F 96% 30.28 in 5.0 mi Calm Calm - N/A   Clear
6:55 AM 71.8 °F - 70.3 °F 95% 30.28 in 10.0 mi Calm Calm - N/A   Clear
7:15 AM 73.0 °F - 70.3 °F 91% 30.28 in 10.0 mi Calm Calm - N/A   Clear
7:35 AM 74.8 °F - 70.2 °F 85% 30.29 in 10.0 mi WSW 4.6 mph - N/A   Clear
7:55 AM 76.5 °F - 70.2 °F 81% 30.29 in 10.0 mi West 4.6 mph - N/A   Clear
8:15 AM 77.9 °F - 69.6 °F 76% 30.29 in 10.0 mi West 6.9 mph - N/A   Clear
8:35 AM 79.2 °F - 69.6 °F 72% 30.29 in 10.0 mi West 4.6 mph - N/A   Clear
8:55 AM 80.4 °F 83.2 °F 68.4 °F 67% 30.29 in 10.0 mi West 6.9 mph - N/A   Clear
9:15 AM 81.1 °F 83.9 °F 68.0 °F 64% 30.29 in 10.0 mi West 8.1 mph - N/A   Clear
9:35 AM 82.0 °F 84.7 °F 67.5 °F 61% 30.29 in 10.0 mi West 8.1 mph - N/A   Clear
9:55 AM 83.3 °F 85.9 °F 67.3 °F 58% 30.29 in 10.0 mi West 8.1 mph - N/A   Scattered Clouds
10:15 AM 83.3 °F 86.2 °F 67.8 °F 59% 30.28 in 10.0 mi West 5.8 mph - N/A   Scattered Clouds
10:35 AM 82.9 °F 85.6 °F 67.1 °F 59% 30.28 in 10.0 mi West 6.9 mph - N/A   Scattered Clouds
11:15 AM 83.3 °F 85.3 °F 65.7 °F 55% 30.28 in 10.0 mi WNW 9.2 mph - N/A   Scattered Clouds
11:35 AM 84.7 °F 86.8 °F 65.8 °F 53% 30.28 in 10.0 mi WSW 5.8 mph - N/A   Scattered Clouds
12:15 PM 85.1 °F 86.9 °F 65.1 °F 51% 30.28 in 10.0 mi West 8.1 mph - N/A   Scattered Clouds
12:35 PM 85.6 °F 87.4 °F 64.9 °F 50% 30.27 in 10.0 mi WSW 6.9 mph - N/A   Scattered Clouds
12:55 PM 86.4 °F 88.1 °F 64.9 °F 49% 30.26 in 10.0 mi WSW 6.9 mph - N/A   Mostly Cloudy
1:35 PM 86.5 °F 88.1 °F 64.6 °F 48% 30.26 in 10.0 mi West 9.2 mph - N/A   Scattered Clouds
2:35 PM 88.0 °F 89.6 °F 64.9 °F 46% 30.23 in 10.0 mi WSW 6.9 mph - N/A   Mostly Cloudy
2:55 PM 86.2 °F 88.2 °F 65.7 °F 50% 30.23 in 10.0 mi West 4.6 mph - N/A   Mostly Cloudy
3:15 PM 86.4 °F 88.1 °F 65.1 °F 49% 30.23 in 10.0 mi WSW 5.8 mph - N/A   Scattered Clouds
3:35 PM 87.1 °F 89.2 °F 65.7 °F 49% 30.22 in 10.0 mi SW 6.9 mph - N/A   Mostly Cloudy
3:55 PM 86.9 °F 88.6 °F 64.9 °F 48% 30.22 in 10.0 mi West 6.9 mph - N/A   Scattered Clouds
4:15 PM 84.7 °F 86.6 °F 65.3 °F 52% 30.21 in 10.0 mi WSW 8.1 mph - N/A   Scattered Clouds
4:35 PM 86.0 °F 88.2 °F 66.2 °F 51% 30.21 in 10.0 mi West 9.2 mph - N/A   Mostly Cloudy
4:55 PM 86.9 °F 89.3 °F 66.0 °F 50% 30.21 in 10.0 mi WSW 4.6 mph - N/A   Mostly Cloudy
5:15 PM 84.7 °F 86.8 °F 65.7 °F 53% 30.21 in 10.0 mi West 5.8 mph - N/A   Scattered Clouds
5:35 PM 86.0 °F 88.2 °F 66.0 °F 51% 30.20 in 10.0 mi WSW 5.8 mph - N/A   Scattered Clouds
5:55 PM 86.0 °F 88.5 °F 66.6 °F 52% 30.19 in 10.0 mi West 5.8 mph - N/A   Scattered Clouds
6:15 PM 85.1 °F 87.4 °F 66.4 °F 53% 30.19 in 10.0 mi WSW 4.6 mph - N/A   Clear
6:35 PM 84.2 °F 86.6 °F 66.2 °F 55% 30.18 in 10.0 mi West 6.9 mph - N/A   Scattered Clouds
6:55 PM 84.2 °F 86.6 °F 66.2 °F 55% 30.18 in 10.0 mi WSW 4.6 mph - N/A   Scattered Clouds
7:15 PM 83.7 °F 86.2 °F 66.9 °F 57% 30.18 in 10.0 mi WSW 3.5 mph - N/A   Clear
7:35 PM 82.8 °F 85.1 °F 66.6 °F 58% 30.18 in 10.0 mi WSW 3.5 mph - N/A   Clear
7:55 PM 81.5 °F 84.1 °F 67.5 °F 62% 30.18 in 10.0 mi Calm Calm - N/A   Clear
8:15 PM 80.2 °F 82.5 °F 66.7 °F 63% 30.18 in 10.0 mi Calm Calm - N/A   Clear
8:35 PM 78.8 °F - 66.7 °F 66% 30.18 in 10.0 mi Calm Calm - N/A   Clear
8:55 PM 74.7 °F - 67.6 °F 79% 30.19 in 7.0 mi Calm Calm - N/A   Clear
9:15 PM 74.1 °F - 67.8 °F 81% 30.19 in 10.0 mi Calm Calm - N/A   Clear
9:35 PM 74.7 °F - 67.5 °F 78% 30.18 in 10.0 mi Calm Calm - N/A   Clear
9:55 PM 73.4 °F - 67.1 °F 81% 30.18 in 10.0 mi Calm Calm - N/A   Clear
10:15 PM 72.0 °F - 66.7 °F 84% 30.18 in 10.0 mi Calm Calm - N/A   Clear
10:35 PM 73.8 °F - 66.9 °F 79% 30.18 in 10.0 mi Calm Calm - N/A   Clear
10:55 PM 73.9 °F - 66.7 °F 78% 30.18 in 10.0 mi Calm Calm - N/A   Clear
11:35 PM 71.6 °F - 66.6 °F 84% 30.17 in 10.0 mi Calm Calm - N/A   Clear
11:55 PM 72.3 °F - 66.7 °F 83% 30.17 in 10.0 mi Calm Calm - N/A   Clear